Weather History for Montpelier, VT

Change the Weather History Date:

Tuesday, November 20, 2012

  Actual Average Record
Temperature  
Mean Temperature 31 °F 34 °F  
Max Temperature 43 °F 42 °F 72 °F (1991)
Min Temperature 19 °F 26 °F 7 °F (1986)
Degree Days  
Heating Degree Days 34 31  
Month to date heating degree days 615 554  
Since 1 July heating degree days 1426 1510  
Moisture  
Dew Point 24 °F    
Average Humidity 77    
Maximum Humidity 100    
Minimum Humidity 53    
Precipitation  
Precipitation 0.00 in 0.11 in 1.38 in (2003)
Month to date precipitation 0.76 2.14  
Year to date precipitation 30.21 33.50  
Sea Level Pressure  
Sea Level Pressure 30.27 in    
Wind  
Wind Speed 0 mph (East)    
Max Wind Speed 5 mph    
Max Gust Speed 5 mph    
Visibility 9 miles    
Events      
T = Trace of Precipitation, MM = Missing Value Source: NWS Daily Summary

Daily Weather History Graph

Daily Weather History Graph

Search for Another Location

Airport:

Trip Planner

Search our weather history database for the weather conditions in past years. The results will help you decide how hot, cold, wet, or windy it might be!

Date:

Astronomy

Nov. 20, 2012 Rise Set
Actual Time 6:52 AM EST 4:18 PM EST
Civil Twilight 6:21 AM EST 4:50 PM EST
Nautical Twilight 5:45 AM EST 5:25 PM EST
Astronomical Twilight 5:11 AM EST 6:00 PM EST
Moon 12:18 PM EST (11/20) 11:56 PM EST (11/20)
Length of Visible Light 10h 29m
Length of Day
9h 25m
Waxing Crescent, 51% of the Moon is Illuminated
Nov 20
Waxing Crescent
Nov 28
Full
Dec 6
Last Quarter
Dec 13
New
Dec 20
First Quarter

Hourly Weather History & Observations

Time (EST) Temp. Windchill Dew Point Humidity Pressure Visibility Wind Dir Wind Speed Gust Speed Precip Events Conditions
12:51 AM 23.0 °F - 19.9 °F 88% 30.32 in 8.0 mi Calm Calm - N/A   Clear
1:51 AM 23.0 °F - 21.0 °F 92% 30.32 in 8.0 mi Calm Calm - N/A   Clear
2:51 AM 21.9 °F - 21.0 °F 96% 30.31 in 9.0 mi Calm Calm - N/A   Clear
3:51 AM 19.9 °F - 18.0 °F 92% 30.30 in 7.0 mi Calm Calm - N/A   Clear
4:51 AM 19.0 °F - 18.0 °F 96% 30.31 in 7.0 mi Calm Calm - N/A   Clear
5:51 AM 19.9 °F - 19.0 °F 96% 30.30 in 8.0 mi Calm Calm - N/A   Clear
6:51 AM 19.9 °F - 19.0 °F 96% 30.30 in 7.0 mi Calm Calm - N/A   Clear
7:51 AM 23.0 °F - 21.9 °F 96% 30.31 in 6.0 mi Calm Calm - N/A   Clear
8:51 AM 25.0 °F - 24.1 °F 96% 30.31 in 6.0 mi Calm Calm - N/A   Clear
9:51 AM 28.0 °F - 26.1 °F 92% 30.30 in 6.0 mi Calm Calm - N/A   Clear
10:51 AM 32.0 °F - 28.9 °F 88% 30.28 in 8.0 mi Calm Calm - N/A   Clear
11:51 AM 33.1 °F 30.0 °F 26.1 °F 75% 30.26 in 10.0 mi East 3.5 mph - N/A   Clear
12:51 PM 37.9 °F - 27.0 °F 65% 30.23 in 10.0 mi Calm Calm - N/A   Scattered Clouds
1:51 PM 39.9 °F - 26.1 °F 58% 30.21 in 10.0 mi Calm Calm - N/A   Mostly Cloudy
2:51 PM 42.1 °F - 26.1 °F 53% 30.21 in 10.0 mi Calm Calm - N/A   Overcast
3:51 PM 39.0 °F - 27.0 °F 62% 30.22 in 10.0 mi Calm Calm - N/A   Mostly Cloudy
4:51 PM 33.1 °F - 26.1 °F 75% 30.23 in 10.0 mi Calm Calm - N/A   Clear
5:51 PM 30.9 °F - 26.1 °F 82% 30.24 in 10.0 mi Calm Calm - N/A   Scattered Clouds
6:51 PM 30.9 °F - 26.1 °F 82% 30.25 in 10.0 mi Calm Calm - N/A   Mostly Cloudy
7:51 PM 30.0 °F - 26.1 °F 85% 30.25 in 10.0 mi Calm Calm - N/A   Partly Cloudy
8:51 PM 30.9 °F - 27.0 °F 85% 30.25 in 10.0 mi Calm Calm - N/A   Mostly Cloudy
9:51 PM 30.9 °F - 27.0 °F 85% 30.25 in 10.0 mi Calm Calm - N/A   Overcast
10:51 PM 30.0 °F - 27.0 °F 88% 30.25 in 10.0 mi Calm Calm - N/A   Overcast
11:51 PM 28.9 °F - 26.1 °F 89% 30.25 in 10.0 mi Calm Calm - N/A   Mostly Cloudy